User: anonymous   Login
Location: Newark
(7.1028°S, 35.3258°W)
Time: 16:37:20
(UTC+00:00)
Language:

Transit 2A Rocket - Orbit

View from above orbital plane
View from above orbital plane
View from above satellite
View from above satellite

Ground track
Ground track

The orbit data is extracted from the following two-line orbital elements,

1    47U 60007C   20050.48163025 -.00000056  00000-0  12410-4 0  9994
2    47  66.6656 113.1384 0224326  28.5883 332.7307 14.42072258117977
Epoch (UTC): 19 February 2020 11:33:32
Eccentricity: 0.0224326
inclination: 66.6656°
perigee height: 592 km
apogee height: 911 km
right ascension of ascending node: 113.1384°
argument of perigee: 28.5883°
revolutions per day: 14.42072258
mean anomaly at epoch: 332.7307°
orbit number at epoch: 11797

The dashed part of the orbit path shows where the satellite is in the earth's shadow,  

DLR